ONEWEB-0081 (45429 NORAD) Tracking and Keplerian Element Data

This shows tracking and keplerian element data for the satellite.

Feedback or suggestion? Click here.




ElementValue
Catalog45429
NameONEWEB-0081
Epoch Orbit89
Epoch Day87.56196393
Epoch Year2020
RAAN136.8325
Inclination87.3984
Eccentricity0.0024931
Argument of Perigee281.6764
Mean Anonmoly78.1692
Mean Motion15.381986
Decay Rate2.305E-05
L11 45429U 20020F 20087.56196393 .00002305 00000-0 59534-4 0 9997
L22 45429 87.3984 136.8325 0024931 281.6764 78.1692 15.38198600 897

Live tracking and technical data element details for ONEWEB-0081 (NORAD 45429). ONEWEB-0081 can be tracked NOW for your location showing map with azimuth and elevation plus other details from your city location.

Track the satellite on the map from your city or location and see movement details for azimuth, elevation, latitude, longitude, range, height, and movement on the map or in text.







IsCatalogInMostPopularTable: catalog: 45429, numindb: -1

Insert: records affected: 1


GetName: 45429 ONEWEB-0081

Hit Count: inserted at: Tue, 31 Mar 2020 13:38:14 GMT